Printer-friendly version

IAU Minor Planet Center

Minor Planet Center

MPEC 2007-S50 : COMET C/2007 N3 (LULIN)

The following Minor Planet Electronic Circular may be linked-to from your own Web pages, but must not otherwise be redistributed electronically.


Read MPEC 2007-S49 Read MPEC 2007-S51


M.P.E.C. 2007-S50                                Issued 2007 Sept. 25, 15:29 UT

     The Minor Planet Electronic Circulars contain information on unusual
         minor planets and routine data on comets.  They are published
   on behalf of Commission 20 of the International Astronomical Union by the
          Minor Planet Center, Smithsonian Astrophysical Observatory,
                          Cambridge, MA 02138, U.S.A.

             Prepared using the Tamkin Foundation Computer Network

                              MPC@CFA.HARVARD.EDU
          URL http://www.cfa.harvard.edu/iau/mpc.html  ISSN 1523-6714

                            COMET C/2007 N3 (LULIN)

Observations:
    CK07N030  C2007 09 15.89636 21 37 52.48 -13 44 45.8          17.9 N ES050130
    CK07N030  C2007 09 15.90134 21 37 52.20 -13 44 47.3          18.4 N ES050130
    CK07N030  C2007 09 15.90692 21 37 51.88 -13 44 48.9          18.1 N ES050130
    CK07N030  C2007 09 15.91329 21 37 51.57 -13 44 51.0          18.0 N ES050130
    CK07N030  C2007 09 19.11350 21 34 58.82 -13 58 55.9          18.2 T ES050704
    CK07N030  C2007 09 19.12597 21 34 58.14 -13 58 59.4          18.2 T ES050704
    CK07N030  C2007 09 19.13843 21 34 57.48 -13 59 02.7          18.0 T ES050704
    CK07N030  C2007 09 19.15087 21 34 56.79 -13 59 06.1          18.2 T ES050704
    CK07N030  C2007 09 19.16333 21 34 56.12 -13 59 08.9          18.3 T ES050704
    CK07N030  C2007 09 20.81574 21 33 28.65 -14 06 14.8          17.0 N ES050B42
    CK07N030  C2007 09 20.82751 21 33 28.08 -14 06 17.2          17.1 N ES050B42

Observer details:
130 Lumezzane.  Observers M. Casali, W. Marinello, M. Micheli, G. Pizzetti,
    A. Soffiantini.  Measurer W. Marinello.  0.40-m f/4.5 reflector + CCD.
704 Lincoln Laboratory ETS, New Mexico.  Observers M. Bezpalko, D. Torres,
    R. Kracke, G. Spitz, J. Kistler.  Measurers J. Stuart, S. Scruggs.  1.0-m
    f/2.15 reflector + CCD.
B42 Vitebsk.  Observer V. Nevski.  0.3-m f/5.0 reflector + CCD.

Orbital elements:
    C/2007 N3 (Lulin)
Epoch 2009 Jan. 9.0 TT = JDT 2454840.5
T 2009 Jan. 10.65289 TT                                 MPC
q   1.2107235            (2000.0)            P               Q
z  +0.0003318      Peri.  136.91387     -0.92956238     -0.36851830
 +/-0.0001406      Node   338.53149     -0.34549203     +0.86094870
e   0.9995983      Incl.  178.37248     -0.12864308     +0.35065882
Residuals in seconds of arc
070711 D35  0.2+  0.1+    070726 673  0.4+  0.5+    070821 699  0.3+  0.3+
070711 D35  0.1-  0.2+    070726 673  0.1+  0.2+    070821 699  0.3+  0.3+
070711 D35  0.5+  0.2+    070727 213  0.0   0.4-    070821 585  0.4+  0.3-
070713 470  0.2+  0.1+    070727 213  0.1+  0.0     070821 585  0.2-  0.2-
070713 470  0.2+  0.1+    070727 213  0.1-  0.3-    070821 585  1.0+  0.1-
070713 474  0.1-  0.2+    070728 232  0.1+  0.7-    070821 585  0.4+  0.8-
070713 474  0.1-  0.1+    070728 232  0.2+  0.4-    070822 699  0.0   0.4+
070713 474  0.2-  0.3+    070728 232  0.1+  0.4+    070822 699  0.2+  0.2+
070713 D35  0.2+  0.1+    070804 232  0.9-  0.4-    070822 699  0.3+  0.4+
070713 D35  0.6+  0.4+    070804 232  0.6-  0.3-    070822 213  0.1+  0.5-
070713 D35  0.6+  0.0     070804 232  0.0   0.7-    070822 213  0.1+  0.3-
070713 D35  0.1+  0.2+    070804 585  1.2+  0.4+    070822 213  0.2+  0.1-
070713 D35  0.0   0.1-    070804 585  0.2+  0.1+    070823 585  0.8+  0.5+
070713 D35  0.0   0.2-    070804 585  0.3-  0.6-    070823 585  0.2-  0.1+
070713 D35  0.1-  0.1-    070805 204  0.1-  0.1+    070823 585  1.2+  0.1-
070713 D35  0.1+  0.3-    070805 147  0.8+  0.4+    070823 585  0.5+  0.2-
070713 D35  0.1+  0.2-    070805 147  0.3-  0.6-    070823 585  0.1+  0.4-
070713 D35  0.3+  0.1+    070805 204  0.3-  0.0     070823 585  0.1-  0.1-
070713 A17  0.1+  0.5-    070805 246  0.5-  0.2+    070823 473  0.3+  0.5-
070713 A17  0.0   0.1-    070805 246  0.2-  0.6+    070823 473  0.6+  0.1-
070713 473  0.5-  0.8+    070805 246  0.4+  0.3+    070823 473  0.7+  0.3-
070713 A17  0.0   0.2+    070805 246  0.2+  0.4+    070823 585  0.2+  0.1+
070713 198  0.1+  0.2+    070805 246  0.4+  0.3+    070823 J70 (2.5-  1.4+)
070713 473  0.3+  0.3+    070805 246  0.4+  0.4+    070823 J70  0.3-  0.2+
070713 198  0.1+  0.3+    070805 B01  0.4+  0.2-    070823 J70  0.2-  0.1+
070713 198  0.0   0.2+    070805 B01  0.0   0.5-    070823 J70  0.4-  0.1-
070714 470  1.2-  0.1-    070805 B01  0.5-  0.1-    070823 J70  0.4+  1.9-
070714 470  0.4-  0.3+    070806 B01  0.0   0.2+    070824 673  0.0   0.2-
070714 151  1.3-  0.6+    070807 428  0.5-  0.6-    070824 673  0.2+  0.1-
070714 151  0.9-  0.4+    070808 213  1.0-  0.2+    070824 673  0.1-  0.1-
070714 151  0.6-  0.3+    070808 213  0.6-  0.2+    070824 673  0.1+  0.2-
070714 H55  0.4-  0.2+    070808 213  0.1-  0.3+    070825 147  0.3+  0.3-
070714 H55  0.1+  0.4+    070809 704  0.2-  0.6+    070825 147  0.2+  0.9-
070714 H55  0.3-  0.4+    070809 704  0.4+  0.2+    070901 232  0.4-  0.5-
070714 151  0.5+  0.7-    070809 704  0.3+  0.2+    070901 232  0.2-  0.7-
070714 151  0.3-  0.2+    070809 704  0.3+  0.1+    070901 232  0.2+  0.9-
070714 151  0.1-  0.2-    070809 850  0.3+  0.5-    070901 213  0.1-  0.1-
070714 473  0.3+  0.7+    070809 704  0.1+  0.0     070901 213  0.1-  0.0
070714 198  0.7+  0.1+    070809 850  0.2+  0.4-    070901 213  0.2-  0.3+
070714 198  0.5+  0.2+    070809 850  0.4+  0.7-    070901 204  0.1+  0.0
070714 198  0.5+  0.2+    070809 850  0.2+  0.4-    070903 703  0.2-  0.1+
070714 A13  0.1-  0.5-    070809 428  0.7-  0.5-    070903 703  0.6-  0.0
070715 473  0.7+  0.5-    070809 428  0.3+  0.1-    070903 703  0.2+  0.2-
070715 A13  0.1+  0.3-    070810 850  0.3+  0.1-    070903 703  0.2-  0.2-
070715 204  0.0   0.0     070810 850  1.6-  1.4-    070903 J70  0.7-  0.0
070715 473  0.0   0.4-    070810 850  0.0   0.1-    070903 J70  0.8-  0.7+
070715 473  0.4-  0.1-    070810 850  0.2-  0.6-    070903 J70  1.6-  1.4+
070715 204  0.0   0.1+    070810 428  0.7-  0.1+    070903 J70  0.0   0.2-
070715 473  0.1-  0.4-    070810 372  0.4+  0.1+    070903 J70  0.1-  0.1+
070715 620  0.1+  0.0     070810 428  0.5+  0.2-    070905 585  1.6+  1.3+
070715 620  0.1+  0.2-    070810 A02 (1.5+  2.5+)   070905 585 (2.3+  2.0+)
070715 620  0.4+  0.2+    070811 232  0.4+  0.0     070905 585  0.0   0.3+
070715 941  0.3-  0.0     070811 232  0.4+  0.1-    070907 349  0.9+  1.2+
070715 941  0.3-  0.0     070811 232  0.0   0.2-    070907 473  0.2+  0.3-
070715 941  0.2-  0.1+    070811 A02  0.1-  0.4-    070907 473  0.3+  0.5-
070715 941  0.2-  0.1+    070811 A02  0.3+  0.4-    070907 473  0.1-  0.5-
070715 941  0.2-  0.0     070811 A02  0.6+  0.1-    070907 J51  0.3-  0.1-
070715 E12  0.0   0.4-    070811 699  0.4-  0.7+    070907 J51  0.3-  0.4+
070715 E12  0.1-  0.2-    070811 699  0.2+  0.4+    070907 J51  0.0   0.4+
070716 673  0.3+  0.0     070811 699  0.5+  0.0     070908 349  0.4-  0.6+
070716 673  0.1+  0.0     070812 850  0.1+  0.1+    070908 349  0.1-  0.7+
070716 673  0.2+  0.3+    070812 850  0.0   1.0+    070908 349  0.1-  0.7+
070716 673  0.3-  0.0     070812 850  0.0   0.3-    070908 130  0.0   0.7-
070717 595  0.6-  0.7+    070812 850  0.1-  0.1+    070908 130  0.2+  0.6-
070717 473  0.2+  0.3+    070812 D88  0.5-  0.1+    070908 130  0.2-  0.9-
070717 595  0.5-  0.6+    070812 D88  0.2-  0.1-    070908 130  0.1+  0.8-
070717 473  0.2+  0.2+    070812 D88  0.2+  0.8-    070908 204  0.0   0.2-
070717 473  0.2+  0.1-    070812 D29  0.2+  0.2-    070909 204  0.2+  0.2+
070717 673  0.3+  0.3+    070812 D29  0.7-  0.0     070909 J51  0.2-  0.5-
070717 703  1.3-  1.2-    070812 D29  0.1-  0.2-    070909 J51  0.2-  0.1-
070717 703  1.5-  0.9-    070812 D29  0.0   0.3-    070909 J51  0.0   0.0
070717 673  0.1-  0.2+    070812 215  0.7+  0.3-    070909 415  0.2+  0.3-
070717 703  1.6-  0.7-    070812 215  0.6+  0.2-    070909 415  0.1+  0.1-
070717 703  0.3-  0.8-    070812 215  0.4+  0.2-    070911 G96  0.4-  0.0
070717 673  0.1+  0.2+    070813 428  0.2+  1.2-    070911 G96  0.0   0.1-
070717 673  0.3+  0.1-    070813 428  0.1+  0.6-    070911 G96  0.2-  0.0
070718 673  0.1+  0.4+    070813 232  0.2-  0.2+    070911 G96  0.3-  0.2-
070718 673  0.2+  0.0     070813 232  0.5-  0.3+    070913 704  0.8+  0.7+
070718 673  0.1+  0.1+    070814 232  1.1-  0.1+    070913 704  0.2-  0.1+
070718 673  0.1+  0.1-    070814 D88  0.9+  0.2-    070913 704  0.1-  0.2+
070718 415  0.2+  0.1-    070814 D88  0.3-  0.4-    070913 704  0.4-  0.3+
070718 415  0.8+  0.6-    070814 D88  0.3+  0.1-    070913 423  1.0+  0.5+
070719 850  0.3+  0.5-    070814 372  0.1+  0.6-    070913 423  0.3+  0.4-
070719 850  1.3+  0.8-    070814 157  0.6-  0.6-    070914 423  0.0   0.1+
070719 704  0.2-  0.3+    070814 157  0.2+  0.5-    070914 423  0.4-  0.1+
070719 704  0.2-  0.3+    070815 704  0.3+  0.7+    070915 157  0.4-  0.6-
070719 850  0.2-  1.7-    070815 704  0.0   0.2-    070915 130  0.1-  0.2+
070719 704  0.2+  0.4+    070815 704  0.0   0.9+    070915 130  0.2-  0.0
070719 704  0.2-  0.2+    070815 704  0.1+  0.6+    070915 130  0.4-  0.1-
070719 704  0.3+  0.6+    070816 372  0.5+  1.4+    070915 130  0.2+  0.5-
070719 673  0.0   0.2+    070816 585  1.3-  0.3-    070916 704  0.0   0.7+
070719 673  0.1-  0.0     070816 585  0.5+  0.2-    070916 704  0.3-  0.9+
070719 673  0.4+  0.1-    070816 585  0.8-  0.4-    070916 704  0.1+  0.3+
070719 673  0.2+  0.0     070816 585  0.2+  0.1-    070916 704  0.1+  0.3+
070720 704  0.1+  0.7+    070816 585  0.4-  0.1-    070916 704  0.3+  0.9+
070720 704  0.1-  0.6+    070816 585  0.2-  0.0     070916 J47  0.2+  0.6-
070720 673  0.3-  0.4+    070816 585  0.7-  0.5-    070916 J47  0.2+  0.3-
070720 704  0.8-  1.0+    070817 157  0.2-  0.6-    070916 J47  0.1-  0.3+
070720 673  0.3-  0.7+    070817 157  0.6+  0.4-    070918 400  0.4-  0.1+
070720 673  0.1-  0.1+    070818 G92  0.4-  0.4+    070918 400  0.2-  0.2-
070720 704  0.2+  1.3+    070818 G92  0.2-  0.7+    070918 400  0.2-  0.2-
070722 850  0.6+  0.1+    070818 G92  0.2-  0.2+    070919 704  0.1+  0.6+
070722 850  0.6+  0.7-    070818 046  0.1-  0.1+    070919 704  0.1-  0.3+
070722 850  0.1-  0.4+    070818 046  0.1+  0.0     070919 704  0.1+  0.3+
070722 415  0.1+  0.4-    070818 046  0.5-  0.2+    070919 704  0.2-  0.1+
070722 415  0.1+  0.0     070818 046  0.2-  0.3+    070919 704  0.2-  0.5+
070723 372  0.1-  0.6+    070818 046  0.3+  0.3+    070920 B42  0.3-  0.3-
070725 415  0.1-  0.1-    070818 046  0.0   0.6+    070920 B42  0.5+  0.3+
070725 415  0.1+  0.1-    070821 699  0.2-  0.3+
070726 673  0.3+  0.3+    070821 699  0.2-  0.4+

     The "original" and "future" barycentric values of 1/a are +0.000347
and +0.000114 (+/- 0.000141) AU^-1, respectively.

Brian G. Marsden             (C) Copyright 2007 MPC           M.P.E.C. 2007-S50

Read MPEC 2007-S49 Read MPEC 2007-S51


Our Web policy. Index to the CBAT/MPC/ICQ pages.


Valid HTML 4.01!